Simultaneous Nadir Overpasses (SNOs) Predictions

Prediction of SNOs between GOES-16 and METOP-B Satellite Orbit:

Table of predicted SNOs for the next 14.0 days since TLE Epoch: 10/8/2018
Index Date Time (GOES-16) GOES-16 Lat,Lon METOP-B Lat,Lon Distance(km) Time Diff (sec)
1 10/09/2018 02:22:54 -0.01, -74.99 0.32, -73.56 164.00 80
2 10/10/2018 14:39:06 0.00, -75.01 0.72, -78.11 354.65 80
3 10/11/2018 14:21:06 0.00, -75.01 -0.40, -73.12 214.85 80
4 10/13/2018 02:37:27 -0.00, -75.00 -0.59, -77.72 309.43 80
5 10/14/2018 02:19:26 -0.01, -75.00 0.47, -72.71 260.32 80
6 10/15/2018 14:35:38 0.01, -75.02 0.51, -77.28 257.41 80
7 10/16/2018 14:17:39 0.01, -75.03 -0.61, -72.28 312.68 80
8 10/18/2018 02:33:58 -0.01, -75.03 -0.43, -76.87 210.52 80
9 10/19/2018 02:15:59 -0.01, -75.04 0.70, -71.88 359.82 80
10 10/20/2018 14:32:11 0.01, -75.07 0.30, -76.45 157.07 80
11 10/21/2018 14:14:12 0.00, -75.08 -0.82, -71.45 413.68 80




NCC Satellite Simultaneous Nadir Overpasses (SNOs) Prediction Service
